SL-16 R/B, 23343

Orbit data source: Space-Track

SL-16 R/B, 23343 is space debris in SSO originally from a launch on Fri, 04 Nov 1994 UTC launched from the Tyuratam Missile And Space Complex (TTMTR). Debris objects in space refer to the collection of defunct objects orbiting the Earth. Examples of debris include non-operational satellites, rocket bodies, and fragments generated from explosions, collisions, or faulty payload assembly.

Loading next visibility...
Identifier
23343, 1994-074B
Orbit
SSO
Country
Flag of CISCIS
Related business
Manufacturer
Yuzhnoe
Mission
Spacecraft
Bus & Motor
11S772, Unknown motor
Mass
9,000 kg wet, 9,000 kg dry
Launch date (UTC)
1994-11-04 (31 years ago)
Launch vehicle
Unknown
Launch site
Tyuratam Missile And Space Complex (TTMTR)
Object type
Payload
Rocket body
Debris
Shape & HBR
Cyl, 5.2 m
Radar Cross Section
37.829 m², Large (>1 m²)

Expand to show TLE details & history
Last TLE update: 10 hours ago

TLE from 10 hours ago
0 SL-16 R/B
1 23343U 94074B   25286.83125354  .00000624  00000-0  90700-4 0  9995
2 23343  97.7287 318.4910 0006256 353.0245 180.3730 14.79186926665534
Epoch: 2025-10-13T19:57Z
TLE epoch observation values (Epoch: 2025-10-13T19:57:00.305Z)
Latitude
6.46384°
Longitude
177.48758°
Altitude
638.696 km
Speed
7.537 km/s
True Right ascension
09h 17m 28s
True Declination
6° 25' 29"
Sunlit
Object was in daylight at epoch
Visualization orbit readout
Latitude
Unknown
Longitude
Unknown
Altitude
Unknown
Speed
Unknown
Apparent Right ascension
Unknown
Apparent Declination
Unknown
Sunlit
N/A
Visualization observer readout
Local Sidereal Time
00:03:40
Azimuth
Unknown
Elevation
Unknown
Doppler factor
Unknown
Orbital elements
Apogee altitude
633.31 km
Perigee altitude
624.543 km
Semi-major axis
7,007.063 km
Eccentricity
0.00063
Inclination
97.7287°
RAAN
318.491°
Arg. of periapsis
353.0245°
True anomaly
180.37253°
Mean anomaly
180.373°
Eccentric anomaly
180.37277°
Mean motion
3.70032 °/min
Orbital period
97.29 mins
BSTAR
0.0000907
Loading maneuver chart data...
Computing Atmospheric mass density...

Documentation

Showing up to 5 results
|